| time (UTC) | temp C | wind direction | speed KPH | gust KPH | rain 1hr cm | rain 24hr cm | rain mn cm | humidity % | barometer mb |
| 20260510220009 | 17 | 63 | 14.5 | 25.7 | 0.00 | 0.00 | 0.00 | 38 | 1017.9 |
| 20260510214509 | 18 | 96 | 11.3 | 24.1 | 0.00 | 0.00 | 0.00 | 37 | 1017.7 |
| 20260510213008 | 18 | 42 | 8.0 | 17.7 | 0.00 | 0.00 | 0.00 | 32 | 1017.8 |
| 20260510211508 | 16 | 49 | 11.3 | 22.5 | 0.00 | 0.00 | 0.00 | 35 | 1017.8 |
| 20260510210007 | 17 | 49 | 11.3 | 22.5 | 0.00 | 0.00 | 0.00 | 37 | 1017.7 |
| 20260510204516 | 15 | 101 | 6.4 | 20.9 | 0.00 | 0.00 | 0.00 | 41 | 1018.5 |
| 20260510203005 | 15 | 57 | 9.7 | 22.5 | 0.00 | 0.00 | 0.00 | 38 | 1019.1 |
| 20260510201502 | 16 | 221 | 4.8 | 12.9 | 0.00 | 0.00 | 0.00 | 40 | 1018.5 |
| 20260510200004 | 17 | 65 | 6.4 | 14.5 | 0.00 | 0.00 | 0.00 | 40 | 1018.1 |
| 20260510194500 | 20 | 236 | 6.4 | 22.5 | 0.00 | 0.00 | 0.00 | 34 | 1017.9 |
| 20260510193058 | 21 | 229 | 6.4 | 19.3 | 0.00 | 0.00 | 0.00 | 24 | 1017.5 |
| 20260510191609 | 19 | 244 | 6.4 | 22.5 | 0.00 | 0.00 | 0.00 | 26 | 1017.5 |
| 20260510190101 | 20 | 263 | 4.8 | 17.7 | 0.00 | 0.00 | 0.00 | 23 | 1017.6 |
| 20260510184553 | 19 | 240 | 3.2 | 20.9 | 0.00 | 0.00 | 0.00 | 23 | 1017.7 |
| 20260510183052 | 19 | 338 | 4.8 | 12.9 | 0.00 | 0.00 | 0.00 | 23 | 1017.6 |
| 20260510181549 | 18 | 262 | 4.8 | 19.3 | 0.00 | 0.00 | 0.00 | 27 | 1017.7 |
| 20260510180059 | 18 | 250 | 3.2 | 17.7 | 0.00 | 0.00 | 0.00 | 30 | 1017.7 |
| 20260510174545 | 18 | 274 | 6.4 | 16.1 | 0.00 | 0.00 | 0.00 | 31 | 1017.8 |
| 20260510173043 | 17 | 246 | 0.0 | 22.5 | 0.00 | 0.00 | 0.00 | 30 | 1018.0 |
| 20260510171542 | 17 | 247 | 4.8 | 19.3 | 0.00 | 0.00 | 0.00 | 31 | 1018.1 |
| 20260510170044 | 17 | 234 | 3.2 | 24.1 | 0.00 | 0.00 | 0.00 | 32 | 1018.0 |
| 20260510164540 | 17 | 247 | 3.2 | 17.7 | 0.00 | 0.00 | 0.00 | 32 | 1017.7 |
| 20260510163048 | 16 | 242 | 4.8 | 20.9 | 0.00 | 0.00 | 0.00 | 34 | 1017.6 |
| 20260510161545 | 17 | 244 | 1.6 | 16.1 | 0.00 | 0.00 | 0.00 | 32 | 1017.5 |
| 20260510160051 | 16 | 249 | 3.2 | 17.7 | 0.00 | 0.00 | 0.00 | 32 | 1017.6 |
| 20260510154533 | 16 | 242 | 3.2 | 16.1 | 0.00 | 0.00 | 0.00 | 32 | 1017.6 |
| 20260510153030 | 16 | 242 | 6.4 | 16.1 | 0.00 | 0.00 | 0.00 | 33 | 1017.5 |
| 20260510151532 | 17 | 273 | 3.2 | 11.3 | 0.00 | 0.00 | 0.00 | 31 | 1017.4 |
| 20260510150030 | 17 | 165 | 3.2 | 14.5 | 0.00 | 0.00 | 0.00 | 31 | 1017.3 |
| 20260510144536 | 16 | 88 | 1.6 | 11.3 | 0.00 | 0.00 | 0.00 | 32 | 1017.4 |
| 20260510143035 | 16 | 67 | 3.2 | 11.3 | 0.00 | 0.00 | 0.00 | 34 | 1017.4 |
| 20260510141531 | 14 | 67 | 3.2 | 12.9 | 0.00 | 0.00 | 0.00 | 38 | 1017.5 |
| 20260510140015 | 12 | 67 | 3.2 | 12.9 | 0.00 | 0.00 | 0.00 | 41 | 1017.3 |
| 20260510134514 | 11 | 67 | 4.8 | 14.5 | 0.00 | 0.00 | 0.00 | 44 | 1017.3 |
| 20260510133015 | 11 | 67 | 3.2 | 12.9 | 0.00 | 0.00 | 0.00 | 44 | 1017.3 |
| 20260510131511 | 11 | 67 | 3.2 | 6.4 | 0.00 | 0.00 | 0.00 | 43 | 1017.1 |
| 20260510130009 | 11 | 67 | 1.6 | 14.5 | 0.00 | 0.00 | 0.00 | 43 | 1016.9 |
| 20260510124508 | 11 | 69 | 1.6 | 12.9 | 0.00 | 0.00 | 0.00 | 41 | 1016.7 |
| 20260510123009 | 11 | 69 | 3.2 | 19.3 | 0.00 | 0.00 | 0.00 | 40 | 1016.7 |
| 20260510121506 | 12 | 72 | 3.2 | 12.9 | 0.00 | 0.00 | 0.00 | 40 | 1016.7 |
| 20260510120009 | 12 | 74 | 1.6 | 8.0 | 0.00 | 0.00 | 0.00 | 38 | 1016.6 |
| 20260510114505 | 12 | 73 | 4.8 | 14.5 | 0.00 | 0.00 | 0.00 | 37 | 1016.6 |
| 20260510113005 | 13 | 78 | 1.6 | 14.5 | 0.00 | 0.00 | 0.00 | 36 | 1016.4 |
| 20260510111502 | 12 | 130 | 3.2 | 11.3 | 0.00 | 0.00 | 0.00 | 36 | 1016.3 |
| 20260510110002 | 12 | 145 | 1.6 | 8.0 | 0.00 | 0.00 | 0.00 | 34 | 1016.2 |
| 20260510104603 | 11 | 111 | 0.0 | 6.4 | 0.00 | 0.00 | 0.00 | 38 | 1016.3 |
| 20260510103102 | 11 | 111 | 1.6 | 6.4 | 0.00 | 0.00 | 0.00 | 39 | 1016.1 |
| 20260510101555 | 11 | 111 | 1.6 | 8.0 | 0.00 | 0.00 | 0.00 | 39 | 1015.9 |
| 20260510100056 | 10 | 111 | 3.2 | 8.0 | 0.00 | 0.00 | 0.00 | 40 | 1015.8 |
| 20260510094555 | 10 | 111 | 1.6 | 4.8 | 0.00 | 0.00 | 0.00 | 39 | 1015.6 |
| 20260510093104 | 10 | 111 | 4.8 | 11.3 | 0.00 | 0.00 | 0.00 | 40 | 1015.2 |
| 20260510091549 | 9 | 110 | 4.8 | 11.3 | 0.00 | 0.00 | 0.00 | 42 | 1014.9 |
| 20260510090050 | 9 | 111 | 4.8 | 12.9 | 0.00 | 0.00 | 0.00 | 42 | 1014.7 |
| 20260510084550 | 9 | 111 | 4.8 | 8.0 | 0.00 | 0.00 | 0.00 | 42 | 1014.6 |
| 20260510083049 | 9 | 111 | 3.2 | 8.0 | 0.00 | 0.00 | 0.00 | 41 | 1014.5 |
| 20260510081605 | 10 | 111 | 3.2 | 8.0 | 0.00 | 0.00 | 0.00 | 41 | 1014.5 |
| 20260510080040 | 10 | 111 | 3.2 | 11.3 | 0.00 | 0.00 | 0.00 | 40 | 1014.5 |
| 20260510074537 | 10 | 111 | 3.2 | 8.0 | 0.00 | 0.00 | 0.00 | 38 | 1014.5 |
| 20260510073049 | 10 | 111 | 1.6 | 6.4 | 0.00 | 0.00 | 0.00 | 38 | 1014.5 |
| 20260510071535 | 11 | 111 | 3.2 | 8.0 | 0.00 | 0.00 | 0.00 | 36 | 1014.5 |
| 20260510070031 | 11 | 112 | 3.2 | 8.0 | 0.00 | 0.00 | 0.00 | 35 | 1014.5 |
| 20260510064537 | 12 | 112 | 1.6 | 8.0 | 0.00 | 0.00 | 0.00 | 34 | 1014.3 |
| 20260510063037 | 12 | 112 | 3.2 | 11.3 | 0.00 | 0.00 | 0.00 | 34 | 1014.3 |
| 20260510061527 | 12 | 112 | 3.2 | 14.5 | 0.00 | 0.00 | 0.00 | 33 | 1014.3 |
| 20260510060034 | 12 | 91 | 4.8 | 11.3 | 0.00 | 0.00 | 0.00 | 32 | 1014.2 |
| 20260510054523 | 13 | 79 | 3.2 | 11.3 | 0.00 | 0.00 | 0.00 | 31 | 1014.1 |
| 20260510053034 | 13 | 80 | 1.6 | 8.0 | 0.00 | 0.00 | 0.00 | 29 | 1014.2 |
| 20260510051522 | 15 | 80 | 1.6 | 6.4 | 0.00 | 0.00 | 0.00 | 27 | 1014.2 |
| 20260510050017 | 16 | 80 | 0.0 | 4.8 | 0.00 | 0.00 | 0.00 | 24 | 1014.0 |
| 20260510044535 | 16 | 80 | 0.0 | 6.4 | 0.00 | 0.00 | 0.00 | 24 | 1014.3 |
| 20260510043015 | 16 | 79 | 0.0 | 11.3 | 0.00 | 0.00 | 0.00 | 24 | 1014.4 |
| 20260510041514 | 16 | 78 | 0.0 | 14.5 | 0.00 | 0.00 | 0.00 | 24 | 1014.3 |
| 20260510040025 | 15 | 249 | 0.0 | 4.8 | 0.00 | 0.00 | 0.00 | 23 | 1014.2 |
| 20260510034514 | 15 | 249 | 0.0 | 0.0 | 0.00 | 0.00 | 0.00 | 20 | 1014.0 |
| 20260510033012 | 16 | 249 | 0.0 | 3.2 | 0.00 | 0.00 | 0.00 | 18 | 1013.7 |
| 20260510031513 | 17 | 249 | 0.0 | 8.0 | 0.00 | 0.00 | 0.00 | 17 | 1013.6 |
| 20260510030015 | 18 | 248 | 0.0 | 4.8 | 0.00 | 0.00 | 0.00 | 20 | 1013.2 |
| 20260510024513 | 18 | 248 | 0.0 | 6.4 | 0.00 | 0.00 | 0.00 | 15 | 1012.9 |
| 20260510023010 | 19 | 248 | 1.6 | 6.4 | 0.00 | 0.00 | 0.00 | 15 | 1012.8 |
| 20260510021510 | 19 | 244 | 0.0 | 3.2 | 0.00 | 0.00 | 0.00 | 16 | 1012.4 |
| 20260510020018 | 20 | 246 | 8.0 | 20.9 | 0.00 | 0.00 | 0.00 | 15 | 1012.3 |
| 20260510014509 | 20 | 252 | 9.7 | 22.5 | 0.00 | 0.00 | 0.00 | 14 | 1012.2 |
| 20260510013009 | 21 | 276 | 4.8 | 22.5 | 0.00 | 0.00 | 0.00 | 13 | 1012.0 |
| 20260510011513 | 21 | 254 | 1.6 | 17.7 | 0.00 | 0.00 | 0.00 | 13 | 1011.8 |
| 20260510010007 | 21 | 11 | 4.8 | 22.5 | 0.00 | 0.00 | 0.00 | 13 | 1011.8 |
| 20260510004506 | 22 | 261 | 6.4 | 19.3 | 0.00 | 0.00 | 0.00 | 13 | 1011.9 |
| 20260510003005 | 21 | 266 | 4.8 | 24.1 | 0.00 | 0.00 | 0.00 | 13 | 1011.7 |
| 20260510001505 | 22 | 250 | 8.0 | 19.3 | 0.00 | 0.00 | 0.00 | 13 | 1011.5 |
| 20260510000012 | 22 | 244 | 8.0 | 30.6 | 0.00 | 0.00 | 0.00 | 13 | 1011.7 |
| 20260509234503 | 22 | 261 | 9.7 | 25.7 | 0.00 | 0.00 | 0.00 | 13 | 1011.4 |
| 20260509233006 | 22 | 250 | 14.5 | 27.4 | 0.00 | 0.00 | 0.00 | 13 | 1011.2 |
| 20260509231501 | 23 | 249 | 8.0 | 24.1 | 0.00 | 0.00 | 0.00 | 13 | 1011.2 |
| 20260509230001 | 23 | 234 | 4.8 | 25.7 | 0.00 | 0.00 | 0.00 | 13 | 1011.4 |
| 20260509224601 | 22 | 248 | 6.4 | 29.0 | 0.00 | 0.00 | 0.00 | 14 | 1011.2 |
| 20260509223101 | 22 | 250 | 8.0 | 22.5 | 0.00 | 0.00 | 0.00 | 14 | 1011.4 |
| 20260509221557 | 22 | 244 | 6.4 | 33.8 | 0.00 | 0.00 | 0.00 | 14 | 1011.5 |